Weather History for PAAK - March, 2013

Change the Weather History Date:

Wednesday, March 6, 2013

  Actual Average (PADK) Record (PADK)
Temperature  
Mean Temperature 29 °F -  
Max Temperature 35 °F 38 °F 49 °F (1966)
Min Temperature 23 °F 29 °F 15 °F (2013)
Degree Days  
Heating Degree Days 36    
Moisture  
Dew Point 22 °F    
Average Humidity 70    
Maximum Humidity 86    
Minimum Humidity 56    
Precipitation  
Precipitation 0.00 in - - ()
Sea Level Pressure  
Sea Level Pressure 29.37 in    
Wind  
Wind Speed 10 mph (NW)    
Max Wind Speed 33 mph    
Max Gust Speed 47 mph    
Visibility 10 miles    
Events      
Averages and records for this station are not official NWS values.
T = Trace of Precipitation, MM = Missing Value Source: NWS Daily Summary

Daily Weather History Graph

Daily Weather History Graph

Search for Another Location

Airport or City:

Trip Planner

Search our weather history database for the weather conditions in past years. The results will help you decide how hot, cold, wet, or windy it might be!

Date:

Astronomy

Mar. 06, 2013 Rise Set
Actual Time 8:10 AM HST 7:26 PM HST
Civil Twilight 7:36 AM HST 8:00 PM HST
Nautical Twilight 6:57 AM HST 8:39 PM HST
Astronomical Twilight 6:17 AM HST 9:19 PM HST
Moon 5:03 AM HST (3/6) 1:52 PM HST (3/6)
Length of Visible Light 12h 23m
Length of Day
11h 15m
Waning Crescent, 28% of the Moon is Illuminated
Mar 6
Waning Crescent
Mar 11
New
Mar 19
First Quarter
Mar 27
Full
Apr 2
Last Quarter

Hourly Weather History & Observations

Time (HST) Temp. Windchill Dew Point Humidity Pressure Visibility Wind Dir Wind Speed Gust Speed Precip Events Conditions
12:16 AM 28.4 °F - 23.0 °F 80% 29.56 in 10.0 mi Calm Calm - N/A   Scattered Clouds
12:36 AM 28.4 °F - 24.8 °F 86% 29.55 in 10.0 mi Calm Calm - N/A   Mostly Cloudy
12:56 AM 28.4 °F - 23.0 °F 80% 29.55 in 10.0 mi Calm Calm - N/A   Overcast
1:16 AM 28.4 °F - 23.0 °F 80% 29.54 in 10.0 mi Calm Calm - N/A   Scattered Clouds
1:36 AM 28.4 °F - 24.8 °F 86% 29.54 in 10.0 mi Calm Calm - N/A   Scattered Clouds
1:56 AM 26.6 °F 16.2 °F 21.2 °F 80% 29.54 in 10.0 mi NNW 11.5 mph 16.1 mph N/A   Mostly Cloudy
2:16 AM 26.6 °F 22.6 °F 21.2 °F 80% 29.53 in 10.0 mi North 3.5 mph - N/A   Mostly Cloudy
2:36 AM 26.6 °F - 21.2 °F 80% 29.53 in 10.0 mi Calm Calm - N/A   Partly Cloudy
2:56 AM 26.6 °F - 19.4 °F 74% 29.52 in 10.0 mi Calm Calm - N/A   Clear
3:16 AM 26.6 °F 22.6 °F 21.2 °F 80% 29.51 in 10.0 mi North 3.5 mph - N/A   Clear
3:36 AM 23.0 °F 18.4 °F 17.6 °F 80% 29.51 in 10.0 mi NNW 3.5 mph - N/A   Clear
3:56 AM 24.8 °F - 17.6 °F 74% 29.51 in 10.0 mi Calm Calm - N/A   Clear
4:16 AM 24.8 °F - 19.4 °F 80% 29.50 in 10.0 mi Calm Calm - N/A   Partly Cloudy
4:36 AM 24.8 °F - 19.4 °F 80% 29.49 in 10.0 mi Calm Calm - N/A   Mostly Cloudy
4:56 AM 26.6 °F - 19.4 °F 74% 29.49 in 10.0 mi Calm Calm - N/A   Mostly Cloudy
5:16 AM 28.4 °F 24.6 °F 17.6 °F 64% 29.48 in 10.0 mi NNW 3.5 mph - N/A   Clear
5:36 AM 28.4 °F 24.6 °F 19.4 °F 69% 29.47 in 10.0 mi NNW 3.5 mph - N/A   Partly Cloudy
5:56 AM 26.6 °F 20.0 °F 19.4 °F 74% 29.47 in 10.0 mi West 5.8 mph - N/A   Mostly Cloudy
6:16 AM 30.2 °F 21.9 °F 21.2 °F 69% 29.46 in 10.0 mi West 9.2 mph - N/A   Mostly Cloudy
6:36 AM 30.2 °F 21.3 °F 23.0 °F 75% 29.45 in 10.0 mi WNW 10.4 mph - N/A   Overcast
6:56 AM 30.2 °F 20.8 °F 21.2 °F 69% 29.44 in 10.0 mi WNW 11.5 mph - N/A   Overcast
7:16 AM 30.2 °F 21.3 °F 23.0 °F 75% 29.44 in 10.0 mi WNW 10.4 mph - N/A   Mostly Cloudy
7:36 AM 30.2 °F 21.9 °F 21.2 °F 69% 29.44 in 10.0 mi West 9.2 mph - N/A   Overcast
7:56 AM 30.2 °F 21.3 °F 19.4 °F 64% 29.43 in 10.0 mi WNW 10.4 mph - N/A   Mostly Cloudy
8:16 AM 30.2 °F 20.8 °F 19.4 °F 64% 29.42 in 10.0 mi WNW 11.5 mph - N/A   Mostly Cloudy
8:36 AM 30.2 °F 21.9 °F 21.2 °F 69% 29.42 in 10.0 mi NW 9.2 mph - N/A   Partly Cloudy
8:56 AM 30.2 °F 20.2 °F 19.4 °F 64% 29.41 in 10.0 mi NW 12.7 mph - N/A   Clear
9:16 AM 30.2 °F 19.8 °F 21.2 °F 69% 29.40 in 10.0 mi NW 13.8 mph - N/A   Clear
9:36 AM 30.2 °F 20.2 °F 24.8 °F 80% 29.40 in 10.0 mi NW 12.7 mph - N/A   Clear
9:56 AM 30.2 °F 19.3 °F 24.8 °F 80% 29.40 in 10.0 mi NW 15.0 mph - N/A   Clear
10:16 AM 32.0 °F 22.1 °F 24.8 °F 75% 29.39 in 10.0 mi NW 13.8 mph - N/A   Scattered Clouds
10:36 AM 33.8 °F 24.3 °F 24.8 °F 70% 29.39 in 10.0 mi NW 13.8 mph - N/A   Mostly Cloudy
10:56 AM 33.8 °F 24.8 °F 24.8 °F 70% 29.37 in 10.0 mi NW 12.7 mph - N/A   Mostly Cloudy
11:16 AM 33.8 °F 23.2 °F 24.8 °F 70% 29.36 in 10.0 mi WNW 17.3 mph 21.9 mph N/A   Scattered Clouds
11:36 AM 33.8 °F 23.5 °F 24.8 °F 70% 29.36 in 10.0 mi NNW 16.1 mph 20.7 mph N/A   Mostly Cloudy
11:56 AM 33.8 °F 22.5 °F 24.8 °F 70% 29.35 in 10.0 mi NNW 19.6 mph - N/A   Mostly Cloudy
12:16 PM 33.8 °F 23.5 °F 26.6 °F 75% 29.35 in 10.0 mi NNW 16.1 mph - N/A   Partly Cloudy
12:36 PM 33.8 °F 23.9 °F 24.8 °F 70% 29.35 in 10.0 mi NW 15.0 mph - N/A   Scattered Clouds
12:56 PM 33.8 °F 23.2 °F 23.0 °F 65% 29.34 in 10.0 mi NNW 17.3 mph 21.9 mph N/A   Mostly Cloudy
1:16 PM 33.8 °F 23.5 °F 23.0 °F 65% 29.33 in 10.0 mi NW 16.1 mph 23.0 mph N/A   Overcast
1:36 PM 33.8 °F 22.8 °F 23.0 °F 65% 29.32 in 10.0 mi NNW 18.4 mph 27.6 mph N/A   Overcast
1:56 PM 33.8 °F 22.8 °F 21.2 °F 60% 29.31 in 10.0 mi NW 18.4 mph 27.6 mph N/A   Overcast
2:16 PM 35.6 °F 24.0 °F 21.2 °F 56% 29.29 in 10.0 mi NNW 23.0 mph 29.9 mph N/A   Overcast
2:36 PM 33.8 °F 22.2 °F 21.2 °F 60% 29.28 in 10.0 mi NNW 20.7 mph 28.8 mph N/A   Overcast
2:56 PM 35.6 °F 24.0 °F 23.0 °F 60% 29.27 in 10.0 mi NW 23.0 mph 32.2 mph N/A   Overcast
3:16 PM 35.6 °F 24.0 °F 21.2 °F 56% 29.27 in 10.0 mi NNW 23.0 mph 29.9 mph N/A   Overcast
3:36 PM 35.6 °F 23.7 °F 23.0 °F 60% 29.26 in 10.0 mi NNW 24.2 mph 29.9 mph N/A   Overcast
3:56 PM 35.6 °F 23.7 °F 21.2 °F 56% 29.26 in 10.0 mi NNW 24.2 mph 28.8 mph N/A   Mostly Cloudy
4:16 PM 33.8 °F 23.5 °F 23.0 °F 65% 29.26 in 10.0 mi NW 16.1 mph 21.9 mph N/A   Overcast
4:36 PM 33.8 °F 21.9 °F 23.0 °F 65% 29.26 in 10.0 mi NNW 21.9 mph 27.6 mph N/A   Overcast
4:56 PM 33.8 °F 22.8 °F 21.2 °F 60% 29.26 in 10.0 mi NNW 18.4 mph 26.5 mph N/A   Mostly Cloudy
5:16 PM 33.8 °F 21.6 °F 23.0 °F 65% 29.25 in 10.0 mi NNW 23.0 mph 27.6 mph N/A   Overcast
5:36 PM 33.8 °F 23.2 °F 21.2 °F 60% 29.25 in 10.0 mi NNW 17.3 mph 25.3 mph N/A   Overcast
5:56 PM 33.8 °F 22.8 °F 19.4 °F 56% 29.25 in 10.0 mi NNW 18.4 mph 27.6 mph N/A   Overcast
6:16 PM 33.8 °F 23.2 °F 21.2 °F 60% 29.25 in 10.0 mi NW 17.3 mph 24.2 mph N/A   Overcast
6:36 PM 32.0 °F 20.5 °F 26.6 °F 80% 29.25 in 2.0 mi NNW 18.4 mph 23.0 mph N/A   Overcast
6:56 PM 33.8 °F 21.3 °F 24.8 °F 70% 29.25 in 2.5 mi NW 24.2 mph 29.9 mph N/A   Mostly Cloudy
7:16 PM 33.8 °F 22.8 °F 23.0 °F 65% 29.25 in 10.0 mi NW 18.4 mph 28.8 mph N/A   Mostly Cloudy
7:36 PM 33.8 °F 21.6 °F 21.2 °F 60% 29.26 in 10.0 mi NNW 23.0 mph 31.1 mph N/A   Overcast
7:56 PM 33.8 °F 21.9 °F 21.2 °F 60% 29.26 in 10.0 mi NW 21.9 mph 28.8 mph N/A   Overcast
8:16 PM 33.8 °F 21.6 °F 23.0 °F 65% 29.25 in 10.0 mi NW 23.0 mph 36.8 mph N/A   Overcast
8:36 PM 32.0 °F 20.1 °F 24.8 °F 75% 29.26 in 4.0 mi NNW 19.6 mph 29.9 mph N/A   Overcast
8:56 PM 32.0 °F 18.1 °F 23.0 °F 69% 29.25 in 10.0 mi NW 27.6 mph 32.2 mph N/A   Mostly Cloudy
9:16 PM - - - N/A% 29.25 in 10.0 mi NNW 25.3 mph 39.1 mph N/A   Overcast
9:36 PM 33.8 °F 20.8 °F 23.0 °F 65% 29.25 in 10.0 mi NW 26.5 mph 32.2 mph N/A   Overcast
9:56 PM 32.0 °F 18.6 °F 24.8 °F 75% 29.26 in 4.0 mi NW 25.3 mph 29.9 mph N/A   Overcast
10:16 PM - - - N/A% 29.24 in 8.0 mi NW 32.2 mph 39.1 mph N/A   Mostly Cloudy
10:36 PM - - - N/A% 29.25 in 9.0 mi NW 32.2 mph 42.6 mph N/A   Overcast
10:56 PM - - - N/A% 29.25 in 10.0 mi NW 27.6 mph 40.3 mph N/A   Overcast
11:16 PM - - - N/A% 29.25 in 10.0 mi WNW 32.2 mph 39.1 mph N/A   Mostly Cloudy
11:36 PM - - - N/A% 29.25 in 10.0 mi NW 28.8 mph 39.1 mph N/A   Mostly Cloudy
11:56 PM - - - N/A% 29.25 in 2.0 mi NW 33.4 mph 47.2 mph N/A   Overcast